www.pogodaiklimat.ru

Погода и климат >> Архив погоды >> ОАЭ >> Абу-Даби Батин аэропорт


ПОГОДА в Абу-Даби Батин аэропорту

  • Прогноз погоды в Абу-Даби Батин аэропорту
  • Монитор погоды в Абу-Даби Батин аэропорту

АРХИВ ПОГОДЫ в Абу-Даби Батин аэропорту

Время (UTC), дата Ветер
(напр.,м/с)
 
Видим.   Явления Облачность Т
(С)
Тd
(С)
f
(%)
Тe
(С)
Тes
(С)
Комфортность P
(гПа)
Po
(гПа)
Тmin
(С)
Tmax
(С)
R
(мм)
R24
(мм)
S
(см)
03 13.06 ЮВ 3 5000 м мгла ясно +32.0 +25.7 69 +47 +48 опасность
перегрева
998.7 998.3
06 13.06 ЮЗ 2 8000 м пыль ясно +36.2 +24.1 50 +48 +64 опасность
перегрева
999.9 999.5 +31.4
09 13.06 нст 2 10 км ясно +41.9 +20.2 29 +47 +69 опасность
перегрева
998.8 998.4
12 13.06 С 4 10 км ясно +38.8 +24.7 45 +51 +57 опасность
перегрева
997.0 996.6
15 13.06 СЗ 4 10 км 3/0
[Ci fib]
+37.0 +23.8 47 +48 +48 опасность
перегрева
996.8 996.4
18 13.06 С 4 7000 м мгла 1/1 270 м
[St]
+32.8 +30.4 87 +61 +61 опасность
перегрева
998.6 998.2 +42.2
21 13.06 нст 1 6000 м мгла ясно +32.1 +28.5 81 +54 +54 опасность
перегрева
997.8 997.4
00 14.06 нст 1 6000 м мгла ясно +31.8 +29.6 88 +57 +57 опасность
перегрева
997.3 996.9
03 14.06 Ю 3 4000 м дымка 6/6 270 м
[St]
+30.8 +29.5 93 +55 +56 опасность
перегрева
999.3 998.8
06 14.06 нст 3 8000 м мгла ясно +34.3 +28.0 70 +55 +69 опасность
перегрева
999.5 999.1 +30.7
09 14.06 З 3 8000 м пыль 3/0
[Ci fib]
+39.4 +25.6 46 +53 +72 опасность
перегрева
998.7 998.3
12 14.06 СЗ 5 10 км 4/0
[Ci fib]
+38.9 +25.5 47 +53 +57 опасность
перегрева
997.0 996.6
15 14.06 С 4 10 км 3/0
[Ci fib]
+34.5 +27.4 67 +54 +54 опасность
перегрева
997.3 996.9
18 14.06 СЗ 3 10 км ясно +32.8 +26.5 70 +50 +50 опасность
перегрева
998.7 998.3 +41.8
21 14.06 нст 1 9000 м мгла ясно +30.5 +28.7 90 +52 +52 опасность
перегрева
998.0 997.6
00 15.06 нст 1 9000 м мгла ясно +29.9 +28.3 91 +50 +50 опасность
перегрева
997.2 996.8
03 15.06 Ю 3 5000 м мгла 4/4 270 м
[St]
+29.7 +27.7 89 +48 +49 опасность
перегрева
999.4 999.0
06 15.06 ЮВ 2 9000 м пыль ясно +34.4 +23.7 54 +46 +61 опасность
перегрева
999.6 999.2 +29.2
09 15.06 З 3 10 км ясно +42.2 +11.8 17 +42 +61 опасность
перегрева
998.3 997.9
15 15.06 С 4 10 км ясно +35.4 +23.7 51 +47 +47 опасность
перегрева
997.6 997.2
18 15.06 С 3 10 км ясно +33.1 +27.3 72 +52 +52 опасность
перегрева
998.7 998.3 +44.3
21 15.06 З 2 8000 м мгла ясно +32.3 +28.3 79 +53 +53 опасность
перегрева
998.1 997.7
00 16.06 С 3 8000 м мгла 3/3 330 м
[St]
+31.8 +29.6 88 +57 +57 опасность
перегрева
997.5 997.1
03 16.06 нст 1 8000 м мгла 5/0
[Ci fib]
+31.5 +29.3 88 +55 +58 опасность
перегрева
999.1 998.7
06 16.06 СВ 2 10 км 6/0
[Ci fib]
+37.8 +21.4 39 +45 +59 опасность
перегрева
999.7 999.3 +31.3
09 16.06 СЗ 4 10 км 5/0
[Ci fib]
+41.6 +23.0 35 +51 +65 опасность
перегрева
998.8 998.4
12 16.06 СЗ 6 10 км 5/0
[Ci fib]
+37.5 +27.5 57 +56 +60 опасность
перегрева
997.6 997.2
15 16.06 С 4 10 км 8/0
[Ci fib]
+34.9 +28.3 69 +57 +57 опасность
перегрева
997.7 997.3
18 16.06 С 3 10 км 5/0
[Ci fib]
+33.2 +29.6 81 +58 +58 опасность
перегрева
999.0 998.6 +43.5
21 16.06 нст 1 10 км 1/0
[Ci fib]
+32.4 +28.4 80 +54 +54 опасность
перегрева
998.7 998.3
00 17.06 штиль 0 10 км ясно +31.1 +27.3 80 +49 +49 опасность
перегрева
998.4 998.0
03 17.06 Ю 2 10 км 6/0
[Ci fib]
+32.3 +24.0 62 +44 +46 опасность
перегрева
999.1 998.7
06 17.06 ЮЗ 3 10 км 3/0
[Ci fib]
+37.1 +22.0 42 +45 +59 опасность
перегрева
1000.2 999.8 +30.1
09 17.06 З 4 10 км 3/0
[Ci fib]
+43.6 +21.1 28 +50 +65 опасность
перегрева
998.7 998.3
12 17.06 С 6 10 км 1/0
[Ci fib]
+39.0 +24.5 44 +51 +55 опасность
перегрева
997.6 997.2
15 17.06 С 3 10 км 4/0
[Ci fib]
+35.6 +28.7 68 +58 +58 опасность
перегрева
997.8 997.4
18 17.06 С 2 6000 м мгла 3/0
[Ci fib]
+32.7 +30.1 86 +60 +60 опасность
перегрева
999.1 998.7 +44.6
21 17.06 ЮЗ 2 4500 м мгла 3/3 240 м
[St]
+32.0 +30.0 89 +58 +58 опасность
перегрева
997.5
00 18.06 З 2 6000 м мгла 1/1 330 м
[St]
+31.9 +29.9 89 +58 +58 опасность
перегрева
997.1 996.7
03 18.06 нст 1 6000 м мгла ясно +31.4 +29.2 88 +55 +57 опасность
перегрева
998.2 997.8
06 18.06 ЮЗ 3 7000 м мгла ясно +35.6 +29.0 69 +59 +74 опасность
перегрева
998.7 998.3 +31.0
09 18.06 С 5 8000 м пыль ясно +39.1 +26.1 48 +54 +65 опасность
перегрева
997.7 997.3
12 18.06 СЗ 6 8000 м пыль ясно +40.1 +23.1 38 +49 +54 опасность
перегрева
996.6 996.2
15 18.06 СЗ 4 10 км ясно +37.6 +23.6 45 +48 +48 опасность
перегрева
996.9 996.5
18 18.06 ЮЗ 2 10 км ясно +35.4 +25.8 58 +51 +51 опасность
перегрева
997.9 997.5 +41.4
21 18.06 З 2 10 км ясно +34.4 +24.9 58 +48 +48 опасность
перегрева
997.1 996.7
00 19.06 СЗ 7 10 км ясно +35.7 +17.8 35 +39 +39 очень
душно
996.1 995.7
03 19.06 СЗ 7 10 км ясно +36.4 +17.5 33 +40 +40 очень
душно
996.9 996.5
06 19.06 З 9 10 км ясно +38.9 +16.4 27 +41 +43 опасность
перегрева
996.9 996.5 +33.7
09 19.06 СЗ 11 10 км ясно +39.0 +19.2 32 +44 +44 опасность
перегрева
996.1 995.7
12 19.06 СЗ 9 10 км ясно +37.3 +23.0 44 +47 +48 опасность
перегрева
995.6 995.2
15 19.06 СЗ 9 10 км ясно +35.2 +21.4 45 +43 +43 опасность
перегрева
996.3 995.9
18 19.06 СЗ 6 10 км ясно +33.6 +22.9 54 +44 +44 опасность
перегрева
997.8 997.4 +39.8
21 19.06 СЗ 4 10 км ясно +33.1 +22.2 53 +42 +42 опасность
перегрева
997.1 996.7
00 20.06 З 5 10 км ясно +33.1 +21.9 52 +42 +42 опасность
перегрева
996.3 995.9

 

Местоположение метеостанции Абу-Даби Батин аэропорт (ОАЭ): широта 24.43 долгота 54.46 высота над уровнем моря 5 м.

В архиве по умолчанию представлена погода в Абу-Даби Батин аэропорту за последнюю неделю. Архивные данные за месяц целиком и за предыдущие месяцы, начиная с января 2011 года, Вы можете получить, выбрав интересующий диапазон дат из раскрывающегося списка и нажав кнопку "Ввод!".


*Определитесь, кто Вы:
робот инопланетянин человек

Внимание! Время в таблицах - всемирное. Для получения местного времени необходимо прибавить поправку, которая равна 4 ч.

Смотрите также архив погоды в соседних городах и на ближайших метеорологических станциях:

Погода в Абу-Даби (ОАЭ) (19 км)
Погода в Аль-Мактум аэропорту (ОАЭ) (88 км)
Погода в Эль-Айне (ОАЭ) (117 км)
Погода в Дубае (ОАЭ) (127 км)
Погода в Эль-Бурайми (Оман) (136 км)
Погода в Шардже (ОАЭ) (146 км)
Погода на Острове Абу-Муса (Иран) (160 км)
Погода на Острове Сирри (Иран) (165 км)
Погода в Кумейре (Оман) (185 км)
Погода в Рай-эль-Хайма аэропорту (ОАЭ) (199 км)

Пояснения к столбцам:

Ветер - указаны скорость ветра в м/с - средняя за 10 мин, порывы в срок и между сроками (в фигурных скобках) и направление, откуда дует ветер: С - северный, СВ - северо-восточный, В - восточный, ЮВ - юго-восточный, Ю - южный, ЮЗ - юго-западный, З - западный, СЗ - северо-западный.
Видимость - горизонтальная дальность видимости в метрах или километрах. При видимости от 1 до 10 км при отсутствии осадков обычно наблюдается дымка, при ухудшении видимости до 1 км и менее - туман. В сухую погоду видимость может ухудшаться дымом, пылью или мглою.
Явления - указаны атмосферные явления, наблюдавшиеся в срок или в последний час перед сроком; фигурными скобками обозначены явления, наблюдавшиеся между сроками (за 1-3 часа до срока); квадратными скобками обозначены град или гололедные отложения с указанием их диаметра в мм.
Облачность - указаны через наклонную черту общая и нижняя облачность в баллах и высота нижней границы облаков в метрах; квадратными скобками обозначены формы облаков: Ci - перистые, Cs - перисто-слоистые, Cc - перисто-кучевые, Ac - высококучевые, As - высокослоистые, Sc - слоисто-кучевые, Ns - слоисто-дождевые, Cu - кучевые, Cb - кучево-дождевые. Подробнее классификацию облаков см. в Атласе облаков (PDF).
T - Температура воздуха - температура, измеренная на высоте 2 м над землей.
Td - Температура точки росы - температура, при понижении до которой содержащийся в воздухе водяной пар достигнет насыщения.
f - Относительная влажность воздуха - влажноcть воздуха, измеренная на высоте 2 м над землей.
Te - Эффективная температура - температура, которую ощущает одетый по сезону человек в тени. Характеристика душности погоды. При расчете учитывается влияние влажности воздуха и скорости ветра на теплоощущения человека.
Tes - Эффективная температура на солнце - температура, которую ощущает человек, с поправкой на солнечный нагрев. Характеристика знойности погоды. Зависит от высоты солнца над горизонтом, облачности и скорости ветра. Ночью, в пасмурную погоду, а также при ветре 12 м/с и более поправка равна нулю.
P - Атмосферное давление - приведенное к уровню моря атмосферное давление.
Po - Атмосферное давление - измеренное на уровне метеостанции атмосферное давление.
Tmin - Минимальная температура - минимум температуры воздуха на высоте 2 м над землей.
Tmax - Максимальная температура - максимум температуры воздуха на высоте 2 м над землей.
R - Количество осадков - Количество выпавших осадков за период времени, мм. При наведении курсора мыши на число - период времени, за который выпало указанное количество осадков.
R24 - Количество осадков - Количество выпавших осадков за 24 часа, мм.
S - Снежный покров - Высота снежного покрова, см. При наведении курсора мыши на число - состояние снежного покрова и степень покрытия местности в баллах.